Weather History for Venice, FL

Change the Weather History Date:

Friday, December 14, 2012

  Actual Average Record
Temperature  
Mean Temperature 65 °F -  
Max Temperature 75 °F 74 °F 89 °F (1987)
Min Temperature 55 °F 54 °F 26 °F (1962)
Growing Degree Days 15 (Base 50)    
Moisture  
Dew Point 56 °F    
Average Humidity 82    
Maximum Humidity 94    
Minimum Humidity 53    
Precipitation  
Precipitation 0.00 in - - ()
Sea Level Pressure  
Sea Level Pressure 30.15 in    
Wind  
Wind Speed 13 mph (NE)    
Max Wind Speed 17 mph    
Max Gust Speed 22 mph    
Visibility 9 miles    
Events      
Averages and records for this station are not official NWS values.
T = Trace of Precipitation, MM = Missing Value Source: NWS Daily Summary

Daily Weather History Graph

Daily Weather History Graph

Search for Another Location

Airport:

Trip Planner

Search our weather history database for the weather conditions in past years. The results will help you decide how hot, cold, wet, or windy it might be!

Date:

Astronomy

Dec. 14, 2012 Rise Set
Actual Time 7:11 AM EST 5:38 PM EST
Civil Twilight 6:45 AM EST 6:03 PM EST
Nautical Twilight 6:16 AM EST 6:32 PM EST
Astronomical Twilight 5:48 AM EST 7:01 PM EST
Moon 8:19 AM EST (12/14) 7:23 PM EST (12/14)
Length of Visible Light 11h 18m
Length of Day
10h 27m
Waxing Crescent, 3% of the Moon is Illuminated
Dec 14
Waxing Crescent
Dec 20
First Quarter
Dec 28
Full
Jan 4
Last Quarter
Jan 11
New

Hourly Weather History & Observations

Time (EST) Temp. Dew Point Humidity Pressure Visibility Wind Dir Wind Speed Gust Speed Precip Events Conditions
12:15 AM 57.2 °F 53.6 °F 88% 30.17 in 10.0 mi NNE 12.7 mph 18.4 mph N/A   Mostly Cloudy
12:35 AM 57.2 °F 53.6 °F 88% 30.17 in 10.0 mi NNE 11.5 mph - N/A   Partly Cloudy
12:55 AM 55.4 °F 53.6 °F 94% 30.17 in 10.0 mi NE 11.5 mph - N/A   Clear
1:15 AM 57.2 °F 53.6 °F 88% 30.17 in 10.0 mi NNE 13.8 mph 20.7 mph N/A   Scattered Clouds
1:35 AM 57.2 °F 53.6 °F 88% 30.17 in 10.0 mi NNE 11.5 mph - N/A   Mostly Cloudy
1:55 AM 57.2 °F 53.6 °F 88% 30.17 in 10.0 mi NNE 10.4 mph 17.3 mph N/A   Overcast
2:15 AM 57.2 °F 53.6 °F 88% 30.16 in 10.0 mi NNE 11.5 mph - N/A   Overcast
2:35 AM 57.2 °F 53.6 °F 88% 30.16 in 10.0 mi NNE 13.8 mph 19.6 mph N/A   Overcast
2:55 AM 57.2 °F 53.6 °F 88% 30.15 in 10.0 mi NNE 16.1 mph - N/A   Overcast
3:15 AM 57.2 °F 53.6 °F 88% 30.15 in 10.0 mi NNE 11.5 mph 17.3 mph N/A   Overcast
3:35 AM 57.2 °F 53.6 °F 88% 30.15 in 10.0 mi NE 15.0 mph - N/A   Overcast
3:55 AM 57.2 °F 53.6 °F 88% 30.15 in 10.0 mi NE 15.0 mph 20.7 mph N/A   Overcast
4:15 AM 57.2 °F 53.6 °F 88% 30.15 in 10.0 mi NE 13.8 mph 19.6 mph N/A   Overcast
4:35 AM 57.2 °F 53.6 °F 88% 30.15 in 9.0 mi NE 15.0 mph 18.4 mph N/A   Overcast
4:55 AM 57.2 °F 55.4 °F 94% 30.15 in 9.0 mi NE 11.5 mph - N/A   Overcast
5:15 AM 57.2 °F 55.4 °F 94% 30.15 in 9.0 mi NE 12.7 mph - N/A   Overcast
5:35 AM 57.2 °F 55.4 °F 94% 30.15 in 8.0 mi NNE 11.5 mph 17.3 mph N/A   Overcast
5:55 AM 57.2 °F 55.4 °F 94% 30.16 in 8.0 mi NE 13.8 mph 17.3 mph N/A   Overcast
6:15 AM 57.2 °F 55.4 °F 94% 30.16 in 7.0 mi NE 12.7 mph - N/A   Overcast
6:35 AM 57.2 °F 55.4 °F 94% 30.16 in 7.0 mi NE 16.1 mph 19.6 mph N/A   Overcast
7:15 AM 57.2 °F 55.4 °F 94% 30.17 in 7.0 mi NE 13.8 mph - N/A   Overcast
7:35 AM 57.2 °F 55.4 °F 94% 30.17 in 7.0 mi NE 13.8 mph - N/A   Overcast
7:55 AM 57.2 °F 55.4 °F 94% 30.18 in 6.0 mi NE 12.7 mph - N/A   Overcast
8:15 AM 59.0 °F 55.4 °F 88% 30.19 in 7.0 mi NE 13.8 mph 19.6 mph N/A   Overcast
8:35 AM 59.0 °F 57.2 °F 94% 30.19 in 8.0 mi NE 13.8 mph 19.6 mph N/A   Overcast
8:55 AM 59.0 °F 57.2 °F 94% 30.20 in 10.0 mi NE 11.5 mph 18.4 mph N/A   Mostly Cloudy
9:15 AM 60.8 °F 57.2 °F 88% 30.21 in 10.0 mi NNE 12.7 mph - N/A   Partly Cloudy
9:35 AM 60.8 °F 57.2 °F 88% 30.21 in 8.0 mi NE 13.8 mph 18.4 mph N/A   Clear
9:55 AM 62.6 °F 57.2 °F 82% 30.21 in 8.0 mi NE 13.8 mph 18.4 mph N/A   Mostly Cloudy
10:15 AM 64.4 °F 57.2 °F 77% 30.20 in 9.0 mi NE 16.1 mph 21.9 mph N/A   Overcast
10:35 AM 64.4 °F 57.2 °F 77% 30.20 in 9.0 mi NE 17.3 mph - N/A   Mostly Cloudy
10:55 AM 66.2 °F 59.0 °F 78% 30.19 in 10.0 mi ENE 16.1 mph 20.7 mph N/A   Mostly Cloudy
11:15 AM 68.0 °F 59.0 °F 73% 30.19 in 10.0 mi NE 15.0 mph 21.9 mph N/A   Mostly Cloudy
11:35 AM 68.0 °F 59.0 °F 73% 30.19 in 10.0 mi NE 17.3 mph 21.9 mph N/A   Scattered Clouds
11:55 AM 69.8 °F 59.0 °F 68% 30.18 in 10.0 mi ENE 17.3 mph 20.7 mph N/A   Scattered Clouds
12:15 PM 69.8 °F 59.0 °F 68% 30.17 in 10.0 mi ENE 16.1 mph 20.7 mph N/A   Scattered Clouds
12:35 PM 71.6 °F 59.0 °F 64% 30.17 in 10.0 mi NE 16.1 mph - N/A   Scattered Clouds
12:55 PM 71.6 °F 59.0 °F 64% 30.16 in 10.0 mi NE 11.5 mph 17.3 mph N/A   Partly Cloudy
1:15 PM 71.6 °F 59.0 °F 64% 30.14 in 9.0 mi NE 17.3 mph - N/A   Partly Cloudy
1:35 PM 73.4 °F 59.0 °F 61% 30.13 in 10.0 mi ENE 11.5 mph - N/A   Partly Cloudy
1:55 PM 73.4 °F 59.0 °F 61% 30.12 in 10.0 mi ENE 11.5 mph - N/A   Clear
2:15 PM 73.4 °F 59.0 °F 61% 30.12 in 10.0 mi ENE 13.8 mph 20.7 mph N/A   Clear
3:35 PM 73.4 °F 59.0 °F 61% 30.12 in 10.0 mi NE 12.7 mph - N/A   Partly Cloudy
3:55 PM 75.2 °F 57.2 °F 53% 30.10 in 10.0 mi NE 15.0 mph - N/A   Clear
4:35 PM 73.4 °F 57.2 °F 57% 30.09 in 10.0 mi ENE 12.7 mph - N/A   Clear
4:55 PM 71.6 °F 55.4 °F 57% 30.09 in 10.0 mi ENE 12.7 mph 16.1 mph N/A   Clear
5:15 PM 71.6 °F 57.2 °F 60% 30.10 in 10.0 mi NE 11.5 mph - N/A   Clear
5:35 PM 68.0 °F 57.2 °F 68% 30.10 in 10.0 mi NE 8.1 mph - N/A   Clear
6:15 PM 66.2 °F 57.2 °F 73% 30.11 in 10.0 mi NNE 5.8 mph - N/A   Clear
6:35 PM 66.2 °F 59.0 °F 78% 30.12 in 10.0 mi NNE 9.2 mph - N/A   Clear
6:55 PM 64.4 °F 59.0 °F 83% 30.13 in 10.0 mi NNE 9.2 mph - N/A   Clear
7:15 PM 64.4 °F 57.2 °F 77% 30.13 in 10.0 mi NNE 10.4 mph - N/A   Partly Cloudy
7:35 PM 64.4 °F 57.2 °F 77% 30.14 in 10.0 mi NE 9.2 mph - N/A   Clear
7:55 PM 64.4 °F 57.2 °F 77% 30.15 in 10.0 mi NNE 9.2 mph - N/A   Clear
8:15 PM 62.6 °F 57.2 °F 82% 30.17 in 10.0 mi NNW 5.8 mph - N/A   Clear
8:35 PM 62.6 °F 57.2 °F 82% 30.16 in 10.0 mi NNE 8.1 mph - N/A   Clear
9:15 PM 60.8 °F 57.2 °F 88% 30.16 in 10.0 mi NE 10.4 mph - N/A   Clear
9:35 PM 60.8 °F 57.2 °F 88% 30.16 in 10.0 mi NE 11.5 mph - N/A   Clear
9:55 PM 59.0 °F 57.2 °F 94% 30.15 in 10.0 mi NE 10.4 mph - N/A   Clear
10:15 PM 59.0 °F 57.2 °F 94% 30.14 in 9.0 mi NE 12.7 mph - N/A   Clear
10:55 PM 59.0 °F 57.2 °F 94% 30.13 in 8.0 mi ENE 10.4 mph - N/A   Clear
11:15 PM 59.0 °F 57.2 °F 94% 30.13 in 8.0 mi ENE 10.4 mph - N/A   Clear
11:35 PM 59.0 °F 57.2 °F 94% 30.12 in 8.0 mi ENE 10.4 mph - N/A   Clear
11:55 PM 59.0 °F 57.2 °F 94% 30.12 in 7.0 mi ENE 10.4 mph - N/A   Clear